Regional Weather Roundup
Issued by NWS

Home | Current Version | Previous Version | Text Only | Print | Product List | Glossary Off
Versions: 1 2 3 4 5 6 7 8 9 10 11 12 13 14 15 16 17 18 19 20 21 22 23 24 25 26 27 28 29 30 31 32 33 34 35 36 37 38 39 40 41 42 43 44 45 46 47 48 49 50

000
ASUS43 KOAX 181202
RWRNE

WEATHER ROUNDUP FOR NEBRASKA
NATIONAL WEATHER SERVICE OMAHA NE
700 AM CDT FRI APR 18 2014

NOTES: SATELLITE DATA IS BEING USED TO AUGMENT CLOUD COVER ABOVE
       12000 FEET.
       "FAIR" INDICATES FEW OR NO CLOUDS BELOW 12,000 FEET WITH NO
       SIGNIFICANT WEATHER AND/OR OBSTRUCTIONS TO VISIBILITY.

  * THESE STATIONS DO NOT REPORT WEATHER SUCH AS RAIN...SNOW OR FOG.

NEZ001>004-019>022-054>056-181300-
NEBRASKA PANHANDLE

CITY           SKY/WX    TMP DP  RH WIND       PRES   REMARKS
SCOTTSBLUFF    PTCLDY    36  32  85 E6        29.92S WCI  31
6HR MIN TEMP:  36; 6HR MAX TEMP:  52;

ALLIANCE       CLEAR     36  33  89 SE8       29.92S WCI  30
6HR MIN TEMP:  34; 6HR MAX TEMP:  43;

CHADRON        PTCLDY    40  34  79 CALM      29.85F
6HR MIN TEMP:  37; 6HR MAX TEMP:  48;

KIMBALL        CLEAR     35  31  87 CALM      29.95S
SIDNEY         CLEAR     38  34  85 SW13      29.97S WCI  30
6HR MIN TEMP:  38; 6HR MAX TEMP:  44;

$$

NEZ057>060-069>072-079>082-181300-
SOUTHWEST NEBRASKA

CITY           SKY/WX    TMP DP  RH WIND       PRES   REMARKS
NORTH PLATTE   CLEAR     39  35  86 S12G22    30.06S WCI  32
6HR MIN TEMP:  39; 6HR MAX TEMP:  44;

IMPERIAL       CLEAR     39  33  79 SE10      30.05R WCI  32
6HR MIN TEMP:  38; 6HR MAX TEMP:  42;

LEXINGTON      CLEAR     41  38  89 S12       30.11F
MCCOOK         CLEAR     38  35  89 S8        30.11F WCI  32
6HR MIN TEMP:  38; 6HR MAX TEMP:  42;

OGALLALA       CLEAR     37  33  86 CALM      30.02F
$$

NEZ005>010-023>029-035>040-094-181300-
NORTH CENTRAL NEBRASKA

CITY           SKY/WX    TMP DP  RH WIND       PRES   REMARKS
VALENTINE      PTCLDY    42  36  79 S15       29.96F
6HR MIN TEMP:  41; 6HR MAX TEMP:  43;

AINSWORTH      PTCLDY    40  35  81 S18G24    29.99S WCI  31
BROKEN BOW     CLEAR     38  36  92 S13G24    30.09F WCI  30
6HR MIN TEMP:  35; 6HR MAX TEMP:  39;

O`NEILL        CLEAR     38  29  70 S12       30.10S WCI  30
ORD            CLEAR     34  29  82 SE6       30.13S WCI  29
6HR MIN TEMP:  33; 6HR MAX TEMP:  40;

THEDFORD       CLEAR     42  37  80 S15G22    30.02S
$$

NEZ041-046>049-061>064-073>077-083>087-181300-
SOUTH CENTRAL NEBRASKA

CITY           SKY/WX    TMP DP  RH WIND       PRES   REMARKS
GRAND ISLAND   CLEAR     37  31  78 S8        30.19S WCI  31
6HR MIN TEMP:  37; 6HR MAX TEMP:  42;

AURORA         CLEAR     37  31  79 S7        30.20S WCI  31
HASTINGS       CLEAR     36  30  79 S7        30.19R WCI  30
6HR MIN TEMP:  36; 6HR MAX TEMP:  42;

HEBRON         CLEAR     34  30  86 CALM      30.24R FOG
HOLDREGE       CLEAR     37  34  89 S9        30.14F WCI  30
KEARNEY *      CLEAR     37  34  87 S10       30.16F WCI  30
YORK           CLEAR     32  30  93 S7        30.22S WCI  26
$$

NEZ011>018-030>034-042>045-181300-
NORTHEAST NEBRASKA

CITY           SKY/WX    TMP DP  RH WIND       PRES   REMARKS
NORFOLK        MOCLDY    36  28  73 E6        30.19S HAZE    WCI  31
6HR MIN TEMP:  32; 6HR MAX TEMP:  39;

ALBION         CLEAR     33  28  80 SE8       30.17S WCI  26
BLAIR          CLEAR     37  28  72 S5        30.26R WCI  33
COLUMBUS *     CLEAR     36  25  64 SE5       30.22S WCI  32
FREMONT        CLEAR     39  31  75 S7        30.26R HAZE    WCI  34
TEKAMAH        CLEAR     26  19  74 S6        30.28R WCI  19
6HR MIN TEMP:  24; 6HR MAX TEMP:  33;

$$

NEZ050>053-065>068-078-088>093-181300-
SOUTHEAST NEBRASKA

CITY           SKY/WX    TMP DP  RH WIND       PRES   REMARKS
LINCOLN        CLEAR     33  26  75 SE3       30.27R HAZE
6HR MIN TEMP:  31; 6HR MAX TEMP:  39;

OMAHA EPPLEY   PTCLDY    30  26  85 CALM      30.28R
6HR MIN TEMP:  29; 6HR MAX TEMP:  37;

BEATRICE         N/A     33  29  87 E3        30.26R FOG
FALLS CITY     CLEAR     31  28  89 CALM      30.29R FOG
6HR MIN TEMP:  29; 6HR MAX TEMP:  39;

NEBRASKA CITY  CLEAR     34  29  83 S5        30.28R HAZE    WCI  30
PLATTSMOUTH    CLEAR     34  28  79 S5        30.28R HAZE    WCI  30
$$

NEZ044-045-051>053-067-181300-
OMAHA AREA

CITY           SKY/WX    TMP DP  RH WIND       PRES   REMARKS
OMAHA EPPLEY   PTCLDY    30  26  85 CALM      30.28R
6HR MIN TEMP:  29; 6HR MAX TEMP:  37;

BLAIR          CLEAR     37  28  72 S5        30.26R WCI  33
FREMONT        CLEAR     39  31  75 S7        30.26R HAZE    WCI  34
MILLARD        CLEAR     32  29  88 CALM      30.28R FOG
OFFUTT AFB     CLEAR     27  26  99 E2        30.28R
PLATTSMOUTH    CLEAR     34  28  79 S5        30.28R HAZE    WCI  30
WAHOO          FAIR      30  24  79 CALM      30.26R HAZE
$$



USA.gov is the U.S. government's official web portal to all federal, state and local government web resources and services.